Location: Abraham Lincoln Continuation High School
(33.9711°N, 117.3662°W)
Time: 13:25:42
(UTC+00:00)

NOSS 3-4 (A) - Pass Details

Date: 21 September 2020
Orbit: 885 x 1327 km, 63.4° (Epoch: 27 October)

Event Time Altitude Azimuth Distance (km) Brightness Sun altitude
Rises 04:06:35 0° 217° (SW) 3,476 6.6 -28.8°
Reaches altitude 10° 04:09:04 10° 220° (SW) 2,536 5.8 -29.3°
Maximum altitude 04:14:51 66° 303° (WNW) 976 3.6 -30.4°
Enters shadow 04:18:11 27° 18° (NNE) 1,687 4.7 -31.1°
Exits shadow 04:21:04 - 25° (NNE) 2,712 5.8 -31.6°
Sets 04:23:35 0° 28° (NNE) 3,658 6.5 -32.1°
